Погода в Хырдалане

Азербайджан     40°27′06″N   49°44′30″E
темп.,
°C
ветер,
м/с
пор.,
м/с
влажн.,
%
обл.,
%
осадки,
мм/ч
давл.,
гПа
погр.,
м
22 января, сб
сб2201:00+3ююз813510 0.0 1021380
04:00+3ююз815466 0.0 1019405
07:00+2ююз814460 0.0 1018348
10:00+3ююз1117455 0.0 1018474
13:00+6ююз1317404 0.0 1016615
16:00+6ююз1318415 0.0 1015716
19:00+5ююз9154285 0.0 1016596
22:00+5ююз8156599 0.0 1016538
23 января, вс
вс2301:00+5ююз7136517 0.0 1016417
04:00+4ю5106535 0.0 1015239
07:00+4ю487540 0.0 1015171
10:00+6ю51171100 0.0 1016462
13:00+9ю811638 0.0 1014996
16:00+9ю912620 0.0 1013831
19:00+7ююз712620 0.0 1014515
22:00+6ююз713580 0.0 1014406
24 января, пн
пн2401:00+6ююз612520 0.0 1014317
04:00+5ю611470 0.0 1014267
07:00+5ю711510 0.0 1014234
10:00+6ю611530 0.0 1016332
13:00+9ю811360 0.0 1015445
16:00+9ю811380 0.0 1016436
19:00+8ю711490 0.0 1017357
22:00+7ю59520 0.0 1018224
25 января, вт
вт2501:00+6зсз33530 0.0 102069
04:00+5ссз33780 0.0 102183
07:00+5ссз34820 0.0 1022117
10:00+6ссв23750 0.0 1024195
13:00+8ссв12601 0.0 1024521
16:00+9всв21560 0.0 1024680
19:00+7ссв45734 0.0 1027326
22:00+6с688421 0.0 1027442
26 января, ср
ср2601:00+6с458560 0.0 1026318
04:00+5св018711 0.0 102541
07:00+4ю349284 0.0 1023126
10:00+6ююз488541 0.0 1021499
13:00+9ю68655 0.0 1019774
16:00+10ю7965100 0.0 1017707
19:00+8ююз6108199 0.0 1016498
22:00+7ююз610825 0.0 1014359